CXI2R LGIR-EDDG

Flight info

Callsign CXI2R
Flight time 3h 22m
Altitude 34000
Route EPALO DCT MIL DCT ATV DCT OHR DCT KIS DCT OMA/N0447F360 DCT KFT DCT SBG DCT NUB DCT DOR DCT DOMEG
Aircraft B738/M-SDE2E3FGHIRWXY/LB1

Departure

Time 2026-04-27 14:45
Airport Heraklion International Nikos Kazantzakis Airport (LGIR)

Arrival

Time 2026-04-27 18:07
Airport Münster Osnabrück Airport (EDDG)
Time Latitude Longitude Altitude Speed Heading
2026-04-27 14:08 35.33811 25.17541 90 ft 0 kts 316°
2026-04-27 14:38 35.33813 25.17539 90 ft 2 kts 316°
2026-04-27 14:39 35.33840 25.17508 93 ft 8 kts 323°
2026-04-27 14:39 35.33903 25.17519 91 ft 12 kts 50°
2026-04-27 14:39 35.33903 25.17636 92 ft 16 kts 95°
2026-04-27 14:39 35.33892 25.17795 91 ft 21 kts 95°
2026-04-27 14:40 35.33881 25.17979 94 ft 22 kts 94°
2026-04-27 14:40 35.33867 25.18158 94 ft 19 kts 95°
2026-04-27 14:40 35.33855 25.18315 93 ft 19 kts 95°
2026-04-27 14:40 35.33844 25.18487 92 ft 20 kts 94°
2026-04-27 14:41 35.33833 25.18654 89 ft 19 kts 95°
2026-04-27 14:41 35.33823 25.18803 92 ft 15 kts 95°
2026-04-27 14:41 35.33820 25.18839 90 ft 0 kts 95°
2026-04-27 14:42 35.33820 25.18841 91 ft 2 kts 95°
2026-04-27 14:42 35.33815 25.18901 89 ft 12 kts 92°
2026-04-27 14:42 35.33862 25.19007 88 ft 14 kts 56°
2026-04-27 14:43 35.33903 25.19029 88 ft 6 kts 311°
2026-04-27 14:43 35.33907 25.19007 88 ft 0 kts 275°
2026-04-27 14:44 35.33920 25.18808 88 ft 57 kts 275°
2026-04-27 14:44 35.33975 25.18039 91 ft 122 kts 275°
2026-04-27 14:44 35.34060 25.16776 123 ft 171 kts 276°
2026-04-27 14:45 35.34166 25.15296 773 ft 179 kts 279°
2026-04-27 14:45 35.34784 25.13941 1388 ft 192 kts 324°
2026-04-27 14:45 35.36018 25.13298 2066 ft 197 kts 344°
2026-04-27 14:45 35.37401 25.12850 2383 ft 215 kts 345°
2026-04-27 14:46 35.38879 25.12380 2706 ft 228 kts 344°
2026-04-27 14:46 35.40439 25.11866 3212 ft 235 kts 344°
2026-04-27 14:46 35.42047 25.11332 3622 ft 249 kts 344°
2026-04-27 14:46 35.43758 25.10755 4184 ft 259 kts 344°
2026-04-27 14:47 35.45497 25.10163 5012 ft 259 kts 343°
2026-04-27 14:47 35.47243 25.09562 5783 ft 262 kts 343°
2026-04-27 14:47 35.49010 25.08949 6529 ft 265 kts 343°
2026-04-27 14:47 35.50801 25.08325 7224 ft 269 kts 343°
2026-04-27 14:48 35.52609 25.07692 7904 ft 273 kts 343°
2026-04-27 14:48 35.56319 25.06390 9295 ft 281 kts 343°
2026-04-27 14:48 35.58208 25.05726 9978 ft 285 kts 343°
2026-04-27 14:49 35.60141 25.05045 10433 ft 297 kts 343°
2026-04-27 14:49 35.62199 25.04318 10583 ft 319 kts 343°
2026-04-27 14:49 35.64409 25.03538 10757 ft 340 kts 343°
2026-04-27 14:49 35.66728 25.02720 11111 ft 352 kts 343°
2026-04-27 14:50 35.69098 25.01884 11710 ft 356 kts 343°
2026-04-27 14:50 35.71454 25.01050 12356 ft 358 kts 342°
2026-04-27 14:50 35.73833 25.00079 12973 ft 362 kts 339°
2026-04-27 14:50 35.76202 24.98979 13586 ft 366 kts 338°
2026-04-27 14:51 35.78584 24.97830 14167 ft 369 kts 338°
2026-04-27 14:51 35.80983 24.96667 14756 ft 371 kts 338°
2026-04-27 14:51 35.83400 24.95502 15372 ft 373 kts 338°
2026-04-27 14:51 35.85006 24.94732 15760 ft 375 kts 338°
2026-04-27 14:52 35.88280 24.93172 16547 ft 378 kts 338°
2026-04-27 14:52 35.90745 24.92004 17115 ft 381 kts 338°
2026-04-27 14:52 35.93224 24.90831 17699 ft 383 kts 338°
2026-04-27 14:52 35.95722 24.89650 18263 ft 386 kts 338°
2026-04-27 14:53 35.98236 24.88462 18767 ft 388 kts 338°
2026-04-27 14:53 36.00767 24.87266 19239 ft 391 kts 338°
2026-04-27 14:53 36.03316 24.86060 19712 ft 394 kts 338°
2026-04-27 14:53 36.05886 24.84844 20184 ft 396 kts 338°
2026-04-27 14:54 36.08468 24.83621 20650 ft 399 kts 337°
2026-04-27 14:54 36.11068 24.82388 21104 ft 401 kts 337°
2026-04-27 14:54 36.13686 24.81146 21547 ft 404 kts 337°
2026-04-27 14:54 36.16322 24.79895 21989 ft 407 kts 337°
2026-04-27 14:55 36.18972 24.78636 22433 ft 409 kts 337°
2026-04-27 14:55 36.21638 24.77369 22868 ft 412 kts 337°
2026-04-27 14:55 36.24323 24.76092 23290 ft 414 kts 337°
2026-04-27 14:55 36.27022 24.74806 23691 ft 417 kts 337°
2026-04-27 14:56 36.29707 24.73527 24030 ft 419 kts 337°
2026-04-27 14:56 36.32438 24.72226 24405 ft 421 kts 337°
2026-04-27 14:56 36.35175 24.70920 24761 ft 422 kts 337°
2026-04-27 14:56 36.37925 24.69607 25112 ft 424 kts 337°
2026-04-27 14:57 36.40685 24.68288 25454 ft 426 kts 337°
2026-04-27 14:57 36.43460 24.66961 25782 ft 428 kts 337°
2026-04-27 14:57 36.46240 24.65630 26113 ft 429 kts 336°
2026-04-27 14:57 36.49031 24.64293 26429 ft 431 kts 337°
2026-04-27 14:58 36.51847 24.62943 26735 ft 433 kts 337°
2026-04-27 14:58 36.54666 24.61591 27043 ft 435 kts 337°
2026-04-27 14:58 36.57496 24.60232 27339 ft 437 kts 337°
2026-04-27 14:58 36.60335 24.58868 27630 ft 439 kts 337°
2026-04-27 14:59 36.63185 24.57498 27918 ft 440 kts 337°
2026-04-27 14:59 36.66017 24.56135 28199 ft 442 kts 337°
2026-04-27 14:59 36.68929 24.54732 28474 ft 444 kts 337°
2026-04-27 14:59 36.71775 24.53361 28743 ft 446 kts 337°
2026-04-27 15:00 36.74674 24.51953 29029 ft 447 kts 335°
2026-04-27 15:00 36.77507 24.50372 29402 ft 445 kts 333°
2026-04-27 15:00 36.80285 24.48679 29832 ft 443 kts 332°
2026-04-27 15:00 36.83027 24.46954 30247 ft 440 kts 331°
2026-04-27 15:01 36.85757 24.45223 30550 ft 440 kts 331°
2026-04-27 15:01 36.88485 24.43500 30823 ft 439 kts 331°
2026-04-27 15:01 36.91213 24.41787 31136 ft 438 kts 331°
2026-04-27 15:01 36.93937 24.40087 31457 ft 436 kts 332°
2026-04-27 15:02 36.96650 24.38399 31746 ft 436 kts 332°
2026-04-27 15:02 36.99367 24.36712 32022 ft 435 kts 332°
2026-04-27 15:02 37.02074 24.35032 32295 ft 435 kts 332°
2026-04-27 15:02 37.04780 24.33352 32584 ft 433 kts 332°
2026-04-27 15:03 37.07479 24.31674 32870 ft 432 kts 332°
2026-04-27 15:03 37.10178 24.29995 33146 ft 432 kts 331°
2026-04-27 15:03 37.12862 24.28324 33402 ft 431 kts 331°
2026-04-27 15:03 37.15546 24.26651 33651 ft 431 kts 331°
2026-04-27 15:04 37.18229 24.24978 33903 ft 430 kts 331°
2026-04-27 15:04 37.20907 24.23306 34097 ft 431 kts 331°
2026-04-27 15:04 37.26312 24.19926 34093 ft 435 kts 331°
2026-04-27 15:05 37.31713 24.16546 34081 ft 431 kts 331°
2026-04-27 15:05 37.37024 24.13217 34093 ft 428 kts 331°
2026-04-27 15:06 37.42374 24.09856 34095 ft 427 kts 332°
2026-04-27 15:06 37.47648 24.06537 34098 ft 427 kts 331°
2026-04-27 15:07 37.52964 24.03188 34100 ft 427 kts 331°
2026-04-27 15:07 37.58287 23.99829 34105 ft 428 kts 332°
2026-04-27 15:08 37.63623 23.96455 34113 ft 430 kts 331°
2026-04-27 15:08 37.68985 23.93060 34121 ft 432 kts 332°
2026-04-27 15:09 37.74366 23.89647 34129 ft 434 kts 332°
2026-04-27 15:09 37.79766 23.86217 34133 ft 435 kts 332°
2026-04-27 15:10 37.82480 23.84491 34282 ft 436 kts 331°
2026-04-27 15:10 37.85182 23.82771 34541 ft 434 kts 331°
2026-04-27 15:10 37.87873 23.81057 34804 ft 431 kts 331°
2026-04-27 15:10 37.90466 23.79176 35044 ft 428 kts 324°
2026-04-27 15:11 37.92896 23.77087 35239 ft 427 kts 323°
2026-04-27 15:11 37.95321 23.74918 35408 ft 427 kts 323°
2026-04-27 15:11 37.97735 23.72732 35549 ft 427 kts 322°
2026-04-27 15:11 38.00153 23.70546 35729 ft 426 kts 323°
2026-04-27 15:12 38.02570 23.68371 35920 ft 425 kts 323°
2026-04-27 15:12 38.04202 23.66910 36031 ft 425 kts 323°
2026-04-27 15:12 38.09034 23.62603 36066 ft 428 kts 323°
2026-04-27 15:13 38.13897 23.58283 36074 ft 425 kts 323°
2026-04-27 15:13 38.18733 23.53984 36078 ft 422 kts 323°
2026-04-27 15:14 38.23526 23.49716 36090 ft 420 kts 323°
2026-04-27 15:14 38.28298 23.45457 36102 ft 418 kts 323°
2026-04-27 15:15 38.33065 23.41196 36114 ft 418 kts 323°
2026-04-27 15:15 38.37808 23.36949 36136 ft 420 kts 323°
2026-04-27 15:16 38.42601 23.32650 36139 ft 422 kts 323°
2026-04-27 15:16 38.47417 23.28323 36144 ft 424 kts 322°
2026-04-27 15:17 38.52252 23.23973 36147 ft 426 kts 323°
2026-04-27 15:17 38.57100 23.19604 36149 ft 427 kts 322°
2026-04-27 15:18 38.61965 23.15212 36151 ft 428 kts 322°
2026-04-27 15:18 38.66840 23.10804 36141 ft 429 kts 322°
2026-04-27 15:19 38.71687 23.06414 36148 ft 428 kts 322°
2026-04-27 15:19 38.76548 23.02004 36149 ft 427 kts 322°
2026-04-27 15:20 38.81401 22.97593 36153 ft 426 kts 322°
2026-04-27 15:20 38.86222 22.93203 36148 ft 424 kts 322°
2026-04-27 15:21 38.91000 22.88846 36151 ft 423 kts 322°
2026-04-27 15:21 38.95792 22.84468 36153 ft 422 kts 322°
2026-04-27 15:22 39.00565 22.80100 36157 ft 421 kts 322°
2026-04-27 15:22 39.05331 22.75731 36153 ft 420 kts 322°
2026-04-27 15:23 39.10082 22.71369 36158 ft 420 kts 322°
2026-04-27 15:23 39.14844 22.66988 36159 ft 420 kts 322°
2026-04-27 15:24 39.19570 22.62634 36158 ft 420 kts 322°
2026-04-27 15:24 39.24330 22.58242 36154 ft 421 kts 322°
2026-04-27 15:25 39.29101 22.53830 36154 ft 422 kts 322°
2026-04-27 15:25 39.33874 22.49410 36140 ft 423 kts 322°
2026-04-27 15:26 39.38654 22.44976 36131 ft 423 kts 322°
2026-04-27 15:26 39.43447 22.40523 36126 ft 424 kts 322°
2026-04-27 15:27 39.48231 22.36069 36121 ft 424 kts 322°
2026-04-27 15:27 39.53018 22.31606 36121 ft 424 kts 322°
2026-04-27 15:28 39.57803 22.27136 36124 ft 424 kts 322°
2026-04-27 15:28 39.62548 22.22697 36117 ft 423 kts 321°
2026-04-27 15:29 39.67319 22.18225 36106 ft 422 kts 321°
2026-04-27 15:29 39.72072 22.13762 36125 ft 421 kts 321°
2026-04-27 15:30 39.76815 22.09301 36127 ft 420 kts 321°
2026-04-27 15:30 39.81543 22.04846 36112 ft 419 kts 321°
2026-04-27 15:31 39.86253 22.00401 36116 ft 418 kts 321°
2026-04-27 15:31 39.90951 21.95958 36110 ft 417 kts 321°
2026-04-27 15:32 39.95636 21.91521 36125 ft 416 kts 321°
2026-04-27 15:32 40.00316 21.87081 36121 ft 416 kts 321°
2026-04-27 15:33 40.05005 21.82624 36127 ft 416 kts 321°
2026-04-27 15:33 40.09659 21.78193 36126 ft 417 kts 321°
2026-04-27 15:34 40.14352 21.73717 36126 ft 417 kts 321°
2026-04-27 15:34 40.19040 21.69238 36126 ft 417 kts 321°
2026-04-27 15:35 40.23722 21.64758 36130 ft 417 kts 321°
2026-04-27 15:35 40.28412 21.60261 36115 ft 418 kts 321°
2026-04-27 15:36 40.33105 21.55754 36119 ft 418 kts 321°
2026-04-27 15:36 40.37802 21.51234 36103 ft 419 kts 321°
2026-04-27 15:37 40.42497 21.46709 36097 ft 419 kts 321°
2026-04-27 15:37 40.47166 21.42201 36097 ft 420 kts 321°
2026-04-27 15:38 40.51877 21.37643 36096 ft 420 kts 321°
2026-04-27 15:38 40.56596 21.33071 36095 ft 421 kts 321°
2026-04-27 15:39 40.61309 21.28496 36085 ft 421 kts 321°
2026-04-27 15:39 40.66019 21.23916 36098 ft 421 kts 321°
2026-04-27 15:40 40.70725 21.19331 36095 ft 421 kts 321°
2026-04-27 15:40 40.75438 21.14731 36090 ft 421 kts 321°
2026-04-27 15:41 40.80115 21.10159 36081 ft 421 kts 321°
2026-04-27 15:41 40.84811 21.05559 36082 ft 420 kts 321°
2026-04-27 15:42 40.89500 21.00957 36082 ft 419 kts 321°
2026-04-27 15:42 40.94181 20.96356 36087 ft 419 kts 321°
2026-04-27 15:43 40.98858 20.91749 36090 ft 418 kts 321°
2026-04-27 15:43 41.03522 20.87148 36101 ft 417 kts 321°
2026-04-27 15:44 41.08152 20.82570 36111 ft 418 kts 321°
2026-04-27 15:44 41.12813 20.77955 36105 ft 418 kts 321°
2026-04-27 15:45 41.17474 20.73342 36104 ft 418 kts 321°
2026-04-27 15:45 41.22281 20.68961 36108 ft 419 kts 323°
2026-04-27 15:46 41.27149 20.64689 36102 ft 419 kts 323°
2026-04-27 15:46 41.32013 20.60397 36092 ft 419 kts 323°
2026-04-27 15:47 41.36863 20.56079 36087 ft 418 kts 323°
2026-04-27 15:47 41.41692 20.51758 36079 ft 418 kts 323°
2026-04-27 15:48 41.46497 20.47447 36070 ft 418 kts 323°
2026-04-27 15:49 41.53735 20.40938 36069 ft 418 kts 323°
2026-04-27 15:49 41.58557 20.36591 36068 ft 418 kts 323°
2026-04-27 15:50 41.63370 20.32246 36077 ft 417 kts 323°
2026-04-27 15:50 41.68180 20.27895 36075 ft 417 kts 323°
2026-04-27 15:51 41.72983 20.23543 36083 ft 417 kts 322°
2026-04-27 15:51 41.77783 20.19185 36073 ft 417 kts 323°
2026-04-27 15:52 41.82583 20.14819 36077 ft 417 kts 323°
2026-04-27 15:52 41.87393 20.10436 36078 ft 418 kts 323°
2026-04-27 15:53 41.92177 20.06069 36077 ft 418 kts 323°
2026-04-27 15:53 41.97000 20.01657 36068 ft 419 kts 323°
2026-04-27 15:54 42.01826 19.97236 36066 ft 420 kts 323°
2026-04-27 15:54 42.06648 19.92809 36073 ft 420 kts 323°
2026-04-27 15:55 42.11473 19.88371 36075 ft 420 kts 323°
2026-04-27 15:55 42.16298 19.83925 36073 ft 420 kts 323°
2026-04-27 15:56 42.21109 19.79484 36070 ft 420 kts 323°
2026-04-27 15:56 42.25929 19.75025 36069 ft 419 kts 323°
2026-04-27 15:57 42.30738 19.70569 36076 ft 419 kts 323°
2026-04-27 15:57 42.35538 19.66113 36066 ft 419 kts 323°
2026-04-27 15:58 42.40339 19.61646 36052 ft 419 kts 323°
2026-04-27 15:58 42.45106 19.57204 36060 ft 419 kts 323°
2026-04-27 15:59 42.49906 19.52723 36057 ft 418 kts 323°
2026-04-27 15:59 42.54692 19.48245 36061 ft 418 kts 323°
2026-04-27 16:00 42.58699 19.44490 36056 ft 418 kts 324°
2026-04-27 16:00 42.63458 19.40025 36048 ft 418 kts 323°
2026-04-27 16:01 42.68274 19.35493 36063 ft 419 kts 323°
2026-04-27 16:01 42.73028 19.31013 36062 ft 418 kts 324°
2026-04-27 16:02 42.77805 19.26503 36061 ft 417 kts 323°
2026-04-27 16:02 42.82580 19.21985 36058 ft 417 kts 323°
2026-04-27 16:03 42.87351 19.17464 36061 ft 418 kts 324°
2026-04-27 16:03 42.92119 19.12936 36056 ft 418 kts 324°
2026-04-27 16:04 42.96898 19.08390 36058 ft 418 kts 324°
2026-04-27 16:04 43.01674 19.03837 36066 ft 418 kts 324°
2026-04-27 16:05 43.06414 18.99310 36066 ft 418 kts 324°
2026-04-27 16:05 43.11183 18.94746 36061 ft 418 kts 324°
2026-04-27 16:06 43.15964 18.90162 36067 ft 419 kts 324°
2026-04-27 16:06 43.20747 18.85567 36063 ft 420 kts 324°
2026-04-27 16:07 43.25524 18.80969 36068 ft 419 kts 324°
2026-04-27 16:07 43.30301 18.76362 36064 ft 419 kts 324°
2026-04-27 16:08 43.35075 18.71749 36063 ft 419 kts 324°
2026-04-27 16:08 43.39849 18.67127 36055 ft 420 kts 324°
2026-04-27 16:09 43.44588 18.62529 36062 ft 420 kts 324°
2026-04-27 16:09 43.51732 18.55582 36051 ft 419 kts 324°
2026-04-27 16:10 43.61242 18.46301 36053 ft 418 kts 324°
2026-04-27 16:11 43.68374 18.39317 36046 ft 418 kts 324°
2026-04-27 16:12 43.75454 18.32363 36044 ft 417 kts 324°
2026-04-27 16:13 43.82551 18.25372 36043 ft 418 kts 324°
2026-04-27 16:13 43.89658 18.18349 36051 ft 418 kts 324°
2026-04-27 16:14 43.99140 18.08947 36069 ft 419 kts 324°
2026-04-27 16:15 44.07953 17.98423 36079 ft 420 kts 316°
2026-04-27 16:16 44.16385 17.87166 36083 ft 420 kts 317°
2026-04-27 16:17 44.24885 17.75928 36097 ft 421 kts 317°
2026-04-27 16:18 44.33379 17.64666 36100 ft 421 kts 317°
2026-04-27 16:19 44.37618 17.59027 36101 ft 421 kts 317°
2026-04-27 16:20 44.46069 17.47751 36093 ft 421 kts 316°
2026-04-27 16:21 44.52418 17.39246 36111 ft 420 kts 316°
2026-04-27 16:22 44.60863 17.27893 36107 ft 420 kts 316°
2026-04-27 16:22 44.67176 17.19374 36117 ft 419 kts 316°
2026-04-27 16:23 44.73442 17.10891 36119 ft 419 kts 316°
2026-04-27 16:24 44.77632 17.05205 36120 ft 419 kts 316°
2026-04-27 16:25 44.86021 16.93782 36121 ft 419 kts 316°
2026-04-27 16:26 44.94405 16.82317 36114 ft 420 kts 316°
2026-04-27 16:27 45.02917 16.71010 36111 ft 420 kts 317°
2026-04-27 16:28 45.13634 16.56937 36107 ft 421 kts 316°
2026-04-27 16:29 45.24294 16.42806 36109 ft 420 kts 316°
2026-04-27 16:30 45.32805 16.31468 36112 ft 419 kts 316°
2026-04-27 16:31 45.43401 16.17285 36105 ft 418 kts 316°
2026-04-27 16:32 45.49744 16.08758 36114 ft 417 kts 316°
2026-04-27 16:33 45.56070 16.00226 36121 ft 417 kts 316°
2026-04-27 16:33 45.60256 15.94566 36127 ft 417 kts 316°
2026-04-27 16:34 45.64496 15.88820 36123 ft 417 kts 316°
2026-04-27 16:34 45.68703 15.83104 36128 ft 418 kts 315°
2026-04-27 16:35 45.72917 15.77368 36122 ft 418 kts 315°
2026-04-27 16:36 45.79210 15.68778 36127 ft 419 kts 315°
2026-04-27 16:36 45.83449 15.62976 36133 ft 419 kts 315°
2026-04-27 16:37 45.87642 15.57224 36132 ft 420 kts 315°
2026-04-27 16:37 45.91856 15.51431 36127 ft 420 kts 315°
2026-04-27 16:38 45.96076 15.45616 36129 ft 420 kts 315°
2026-04-27 16:38 46.00292 15.39794 36105 ft 420 kts 315°
2026-04-27 16:39 46.04508 15.33961 36108 ft 420 kts 315°
2026-04-27 16:39 46.08713 15.28127 36111 ft 419 kts 315°
2026-04-27 16:40 46.12910 15.22293 36114 ft 419 kts 315°
2026-04-27 16:40 46.17106 15.16447 36111 ft 419 kts 315°
2026-04-27 16:41 46.21258 15.10649 36130 ft 419 kts 315°
2026-04-27 16:41 46.25444 15.04790 36111 ft 419 kts 314°
2026-04-27 16:42 46.29618 14.98934 36118 ft 418 kts 314°
2026-04-27 16:42 46.33791 14.93069 36109 ft 418 kts 314°
2026-04-27 16:43 46.37961 14.87193 36103 ft 419 kts 314°
2026-04-27 16:43 46.42124 14.81313 36101 ft 418 kts 314°
2026-04-27 16:44 46.46286 14.75424 36100 ft 417 kts 314°
2026-04-27 16:44 46.50431 14.69544 36090 ft 416 kts 314°
2026-04-27 16:45 46.54567 14.63662 36094 ft 415 kts 314°
2026-04-27 16:45 46.58690 14.57789 36077 ft 415 kts 314°
2026-04-27 16:46 46.62286 14.53162 36082 ft 415 kts 320°
2026-04-27 16:46 46.67586 14.47130 36076 ft 416 kts 320°
2026-04-27 16:47 46.71386 14.42828 36076 ft 416 kts 320°
2026-04-27 16:47 46.75948 14.37603 36080 ft 417 kts 320°
2026-04-27 16:48 46.80508 14.32335 36074 ft 418 kts 320°
2026-04-27 16:48 46.85069 14.27046 36077 ft 419 kts 320°
2026-04-27 16:49 46.91929 14.19064 36079 ft 421 kts 320°
2026-04-27 16:49 46.96515 14.13714 36081 ft 422 kts 319°
2026-04-27 16:50 47.01099 14.08355 36083 ft 421 kts 319°
2026-04-27 16:50 47.05690 14.02976 36092 ft 422 kts 319°
2026-04-27 16:51 47.10282 13.97582 36085 ft 422 kts 319°
2026-04-27 16:51 47.14855 13.92200 36103 ft 422 kts 319°
2026-04-27 16:52 47.19430 13.86803 36103 ft 421 kts 319°
2026-04-27 16:52 47.23963 13.81443 36118 ft 420 kts 319°
2026-04-27 16:53 47.28525 13.76036 36118 ft 420 kts 319°
2026-04-27 16:53 47.33065 13.70643 36111 ft 419 kts 319°
2026-04-27 16:54 47.37606 13.65236 36117 ft 419 kts 319°
2026-04-27 16:54 47.42128 13.59841 36120 ft 417 kts 319°
2026-04-27 16:55 47.46634 13.54451 36124 ft 416 kts 318°
2026-04-27 16:55 47.51136 13.49055 36129 ft 416 kts 318°
2026-04-27 16:56 47.55601 13.43689 36128 ft 416 kts 318°
2026-04-27 16:56 47.60092 13.38282 36128 ft 416 kts 318°
2026-04-27 16:57 47.64582 13.32863 36131 ft 415 kts 318°
2026-04-27 16:57 47.69065 13.27440 36138 ft 415 kts 318°
2026-04-27 16:58 47.73543 13.22010 36134 ft 415 kts 318°
2026-04-27 16:58 47.78018 13.16571 36133 ft 416 kts 318°
2026-04-27 16:59 47.82503 13.11107 36132 ft 416 kts 318°
2026-04-27 16:59 47.86984 13.05636 36133 ft 417 kts 317°
2026-04-27 17:00 47.93713 12.97396 36133 ft 418 kts 317°
2026-04-27 17:01 47.98201 12.91886 36132 ft 418 kts 317°
2026-04-27 17:01 48.02683 12.86414 36125 ft 418 kts 318°
2026-04-27 17:02 48.07232 12.80997 36133 ft 417 kts 319°
2026-04-27 17:02 48.11759 12.75610 36137 ft 415 kts 318°
2026-04-27 17:03 48.16252 12.70236 36135 ft 414 kts 318°
2026-04-27 17:03 48.20743 12.64842 36137 ft 414 kts 318°
2026-04-27 17:04 48.25232 12.59434 36138 ft 414 kts 318°
2026-04-27 17:04 48.29724 12.54010 36142 ft 414 kts 318°
2026-04-27 17:05 48.34217 12.48572 36140 ft 415 kts 318°
2026-04-27 17:05 48.38714 12.43116 36142 ft 416 kts 318°
2026-04-27 17:06 48.43224 12.37633 36143 ft 417 kts 318°
2026-04-27 17:06 48.47712 12.32163 36146 ft 418 kts 318°
2026-04-27 17:07 48.52239 12.26633 36148 ft 419 kts 318°
2026-04-27 17:07 48.56770 12.21085 36155 ft 420 kts 318°
2026-04-27 17:08 48.61299 12.15526 36149 ft 420 kts 318°
2026-04-27 17:08 48.65838 12.09942 36159 ft 420 kts 318°
2026-04-27 17:09 48.70364 12.04360 36148 ft 420 kts 318°
2026-04-27 17:09 48.74871 11.98788 36140 ft 420 kts 318°
2026-04-27 17:10 48.79391 11.93187 36142 ft 420 kts 318°
2026-04-27 17:10 48.83913 11.87569 36142 ft 419 kts 318°
2026-04-27 17:11 48.88421 11.81956 36161 ft 419 kts 318°
2026-04-27 17:11 48.95174 11.73521 36151 ft 418 kts 318°
2026-04-27 17:12 49.01908 11.65080 36155 ft 417 kts 318°
2026-04-27 17:13 49.06386 11.59450 36156 ft 417 kts 318°
2026-04-27 17:13 49.10829 11.53851 36152 ft 417 kts 318°
2026-04-27 17:14 49.15294 11.48210 36150 ft 416 kts 318°
2026-04-27 17:14 49.19755 11.42560 36150 ft 416 kts 318°
2026-04-27 17:15 49.24211 11.36904 36150 ft 416 kts 318°
2026-04-27 17:15 49.28664 11.31236 36157 ft 416 kts 318°
2026-04-27 17:16 49.33106 11.25570 36154 ft 416 kts 318°
2026-04-27 17:16 49.37548 11.19889 36158 ft 416 kts 318°
2026-04-27 17:17 49.41994 11.14188 36160 ft 416 kts 318°
2026-04-27 17:17 49.46427 11.08493 36158 ft 416 kts 317°
2026-04-27 17:18 49.52887 10.99634 36170 ft 414 kts 313°
2026-04-27 17:18 49.56883 10.93270 36157 ft 413 kts 312°
2026-04-27 17:19 49.60864 10.86870 36156 ft 413 kts 312°
2026-04-27 17:19 49.64858 10.80486 36157 ft 413 kts 312°
2026-04-27 17:20 49.68859 10.74107 36163 ft 413 kts 312°
2026-04-27 17:20 49.72833 10.67766 36159 ft 413 kts 312°
2026-04-27 17:21 49.76822 10.61387 36167 ft 413 kts 312°
2026-04-27 17:21 49.80814 10.54986 36167 ft 413 kts 312°
2026-04-27 17:22 49.84797 10.48584 36173 ft 413 kts 312°
2026-04-27 17:22 49.88776 10.42170 36174 ft 413 kts 312°
2026-04-27 17:23 49.92754 10.35744 36173 ft 413 kts 312°
2026-04-27 17:23 49.96728 10.29305 36173 ft 413 kts 312°
2026-04-27 17:24 50.00694 10.22865 36176 ft 412 kts 312°
2026-04-27 17:24 50.04655 10.16417 36170 ft 412 kts 312°
2026-04-27 17:25 50.08612 10.09958 36177 ft 412 kts 311°
2026-04-27 17:25 50.12538 10.03534 36174 ft 412 kts 311°
2026-04-27 17:26 50.16514 9.97010 36177 ft 412 kts 311°
2026-04-27 17:26 50.20458 9.90522 36173 ft 412 kts 311°
2026-04-27 17:27 50.24398 9.84024 36182 ft 412 kts 311°
2026-04-27 17:27 50.28311 9.77556 36178 ft 412 kts 311°
2026-04-27 17:28 50.32239 9.71044 36181 ft 412 kts 311°
2026-04-27 17:29 50.38122 9.61261 36183 ft 411 kts 311°
2026-04-27 17:29 50.41971 9.54843 36181 ft 399 kts 311°
2026-04-27 17:30 50.45762 9.48504 36180 ft 397 kts 311°
2026-04-27 17:30 50.49545 9.42158 35553 ft 394 kts 311°
2026-04-27 17:30 50.51408 9.39030 35180 ft 390 kts 310°
2026-04-27 17:31 50.53251 9.35931 34793 ft 387 kts 310°
2026-04-27 17:31 50.55084 9.32845 34414 ft 384 kts 310°
2026-04-27 17:31 50.56899 9.29787 34084 ft 380 kts 308°
2026-04-27 17:31 50.58694 9.26759 33631 ft 377 kts 308°
2026-04-27 17:32 50.60449 9.23792 33253 ft 373 kts 308°
2026-04-27 17:32 50.63945 9.17875 32510 ft 365 kts 308°
2026-04-27 17:32 50.65665 9.14958 32127 ft 361 kts 308°
2026-04-27 17:33 50.67369 9.12066 31772 ft 358 kts 308°
2026-04-27 17:33 50.69058 9.09194 31405 ft 354 kts 308°
2026-04-27 17:33 50.70163 9.07312 31175 ft 352 kts 308°
2026-04-27 17:33 50.71820 9.04491 30822 ft 349 kts 308°
2026-04-27 17:34 50.73466 9.01684 30476 ft 347 kts 308°
2026-04-27 17:34 50.75100 8.98894 30105 ft 344 kts 308°
2026-04-27 17:34 50.76717 8.96130 29731 ft 340 kts 308°
2026-04-27 17:34 50.78316 8.93395 29371 ft 336 kts 308°
2026-04-27 17:35 50.79896 8.90692 29022 ft 332 kts 308°
2026-04-27 17:35 50.81453 8.88022 28667 ft 329 kts 308°
2026-04-27 17:35 50.82996 8.85374 28321 ft 325 kts 308°
2026-04-27 17:35 50.84502 8.82787 27985 ft 322 kts 307°
2026-04-27 17:36 50.86012 8.80190 27624 ft 319 kts 307°
2026-04-27 17:36 50.87505 8.77619 27309 ft 316 kts 307°
2026-04-27 17:36 50.88989 8.75061 26961 ft 314 kts 307°
2026-04-27 17:36 50.90460 8.72524 26621 ft 311 kts 307°
2026-04-27 17:37 50.91918 8.70005 26289 ft 309 kts 307°
2026-04-27 17:37 50.93367 8.67500 25958 ft 308 kts 307°
2026-04-27 17:37 50.94812 8.64999 25649 ft 307 kts 307°
2026-04-27 17:37 50.96255 8.62497 25323 ft 310 kts 307°
2026-04-27 17:38 50.97729 8.59935 25005 ft 320 kts 307°
2026-04-27 17:38 50.99246 8.57295 24674 ft 325 kts 308°
2026-04-27 17:38 51.00769 8.54650 24316 ft 324 kts 308°
2026-04-27 17:38 51.02285 8.52018 23974 ft 322 kts 308°
2026-04-27 17:39 51.03790 8.49400 23591 ft 320 kts 308°
2026-04-27 17:39 51.05286 8.46797 23216 ft 318 kts 308°
2026-04-27 17:39 51.06777 8.44196 22846 ft 316 kts 308°
2026-04-27 17:39 51.08247 8.41632 22532 ft 313 kts 308°
2026-04-27 17:40 51.09708 8.39079 22180 ft 310 kts 308°
2026-04-27 17:40 51.11135 8.36583 21870 ft 308 kts 308°
2026-04-27 17:40 51.12570 8.34069 21542 ft 306 kts 308°
2026-04-27 17:40 51.13996 8.31570 21218 ft 304 kts 308°
2026-04-27 17:41 51.15411 8.29087 20896 ft 302 kts 308°
2026-04-27 17:41 51.16819 8.26613 20582 ft 300 kts 308°
2026-04-27 17:41 51.18213 8.24161 20267 ft 298 kts 309°
2026-04-27 17:41 51.19603 8.21713 19953 ft 297 kts 309°
2026-04-27 17:42 51.20984 8.19281 19631 ft 295 kts 309°
2026-04-27 17:42 51.22356 8.16860 19335 ft 294 kts 309°
2026-04-27 17:42 51.23728 8.14438 19021 ft 293 kts 309°
2026-04-27 17:42 51.25091 8.12029 18723 ft 292 kts 309°
2026-04-27 17:43 51.26447 8.09631 18406 ft 291 kts 309°
2026-04-27 17:43 51.27801 8.07235 18066 ft 290 kts 309°
2026-04-27 17:43 51.29150 8.04843 17744 ft 289 kts 309°
2026-04-27 17:43 51.30490 8.02468 17422 ft 287 kts 309°
2026-04-27 17:44 51.31820 8.00106 17121 ft 285 kts 309°
2026-04-27 17:44 51.33144 7.97754 16819 ft 283 kts 309°
2026-04-27 17:44 51.34458 7.95417 16536 ft 281 kts 309°
2026-04-27 17:44 51.35765 7.93091 16237 ft 280 kts 309°
2026-04-27 17:45 51.37062 7.90780 15947 ft 278 kts 309°
2026-04-27 17:45 51.38356 7.88471 15663 ft 279 kts 309°
2026-04-27 17:45 51.39656 7.86149 15370 ft 282 kts 309°
2026-04-27 17:45 51.40979 7.83783 15089 ft 288 kts 309°
2026-04-27 17:46 51.42311 7.81397 14791 ft 294 kts 309°
2026-04-27 17:46 51.43677 7.78952 14479 ft 294 kts 309°
2026-04-27 17:46 51.45059 7.76477 14162 ft 293 kts 309°
2026-04-27 17:46 51.46399 7.74076 13841 ft 292 kts 309°
2026-04-27 17:47 51.47750 7.71652 13508 ft 290 kts 309°
2026-04-27 17:47 51.48654 7.70028 13280 ft 289 kts 309°
2026-04-27 17:47 51.50422 7.66847 12891 ft 287 kts 309°
2026-04-27 17:47 51.51776 7.64517 12584 ft 286 kts 318°
2026-04-27 17:48 51.53500 7.62922 12348 ft 286 kts 339°
2026-04-27 17:48 51.55448 7.62268 12070 ft 286 kts 349°
2026-04-27 17:48 51.57412 7.61832 11780 ft 285 kts 350°
2026-04-27 17:48 51.59371 7.61412 11483 ft 284 kts 350°
2026-04-27 17:49 51.61325 7.60980 11190 ft 282 kts 349°
2026-04-27 17:49 51.63270 7.60534 10907 ft 281 kts 349°
2026-04-27 17:49 51.65206 7.60080 10612 ft 281 kts 349°
2026-04-27 17:49 51.67137 7.59622 10390 ft 277 kts 349°
2026-04-27 17:50 51.69021 7.59174 10261 ft 270 kts 349°
2026-04-27 17:50 51.72657 7.59952 9747 ft 270 kts 25°
2026-04-27 17:50 51.74323 7.61341 9462 ft 269 kts 26°
2026-04-27 17:51 51.75960 7.62734 9182 ft 268 kts 26°
2026-04-27 17:51 51.77608 7.64122 8920 ft 267 kts 26°
2026-04-27 17:51 51.79254 7.65495 8644 ft 266 kts 26°
2026-04-27 17:51 51.80897 7.66859 8371 ft 265 kts 26°
2026-04-27 17:52 51.82530 7.68210 8111 ft 264 kts 26°
2026-04-27 17:52 51.84145 7.69548 8013 ft 255 kts 26°
2026-04-27 17:52 51.85702 7.70845 7903 ft 249 kts 29°
2026-04-27 17:52 51.86973 7.72697 7627 ft 249 kts 58°
2026-04-27 17:53 51.87496 7.75319 7444 ft 246 kts 88°
2026-04-27 17:53 51.87163 7.77999 7337 ft 244 kts 117°
2026-04-27 17:53 51.86079 7.80076 7277 ft 244 kts 146°
2026-04-27 17:53 51.84497 7.81055 7239 ft 248 kts 176°
2026-04-27 17:54 51.82791 7.80698 7223 ft 250 kts 201°
2026-04-27 17:54 51.81212 7.79529 7216 ft 249 kts 208°
2026-04-27 17:54 51.79678 7.78224 7206 ft 249 kts 208°
2026-04-27 17:54 51.78168 7.76941 7197 ft 248 kts 208°
2026-04-27 17:55 51.76636 7.75658 7205 ft 247 kts 208°
2026-04-27 17:55 51.75309 7.73950 7197 ft 245 kts 236°
2026-04-27 17:55 51.74683 7.71442 7211 ft 242 kts 264°
2026-04-27 17:55 51.74872 7.68775 7212 ft 241 kts 292°
2026-04-27 17:56 51.75817 7.66573 7218 ft 242 kts 321°
2026-04-27 17:56 51.77308 7.65368 7218 ft 243 kts 349°
2026-04-27 17:56 51.78989 7.65445 7224 ft 245 kts 15°
2026-04-27 17:56 51.80570 7.66495 7228 ft 247 kts 26°
2026-04-27 17:57 51.82104 7.67781 7225 ft 249 kts 27°
2026-04-27 17:57 51.83649 7.69091 7109 ft 253 kts 27°
2026-04-27 17:57 51.85211 7.70400 6878 ft 252 kts 27°
2026-04-27 17:57 51.86839 7.71415 6578 ft 253 kts
2026-04-27 17:58 51.88554 7.71008 6302 ft 251 kts 335°
2026-04-27 17:58 51.89940 7.69341 6051 ft 250 kts 309°
2026-04-27 17:58 51.90885 7.67001 5808 ft 248 kts 301°
2026-04-27 17:58 51.91772 7.64611 5563 ft 246 kts 301°
2026-04-27 17:59 51.92654 7.62256 5368 ft 243 kts 302°
2026-04-27 17:59 51.93536 7.59944 5164 ft 240 kts 302°
2026-04-27 17:59 51.94414 7.57668 4954 ft 237 kts 302°
2026-04-27 17:59 51.95265 7.55473 4777 ft 229 kts 302°
2026-04-27 18:00 51.96100 7.53321 4550 ft 223 kts 302°
2026-04-27 18:00 51.96913 7.51228 4327 ft 217 kts 303°
2026-04-27 18:00 51.97815 7.49304 4090 ft 210 kts 311°
2026-04-27 18:00 51.98760 7.47554 3920 ft 203 kts 312°
2026-04-27 18:01 51.99679 7.45849 3692 ft 198 kts 312°
2026-04-27 18:01 52.00573 7.44169 3483 ft 195 kts 311°
2026-04-27 18:01 52.01443 7.42523 3342 ft 189 kts 312°
2026-04-27 18:01 52.02295 7.40904 3209 ft 187 kts 312°
2026-04-27 18:02 52.03164 7.39323 3081 ft 189 kts 320°
2026-04-27 18:02 52.04316 7.38332 3004 ft 189 kts 350°
2026-04-27 18:02 52.05610 7.38329 2971 ft 185 kts 18°
2026-04-27 18:02 52.06723 7.39262 2956 ft 180 kts 49°
2026-04-27 18:03 52.07360 7.40981 2974 ft 179 kts 64°
2026-04-27 18:03 52.07903 7.42768 2969 ft 176 kts 65°
2026-04-27 18:03 52.08396 7.44528 2957 ft 165 kts 69°
2026-04-27 18:03 52.08800 7.46276 2846 ft 169 kts 71°
2026-04-27 18:04 52.09191 7.48105 2634 ft 171 kts 71°
2026-04-27 18:04 52.09571 7.49923 2376 ft 165 kts 71°
2026-04-27 18:04 52.09935 7.51666 2169 ft 161 kts 71°
2026-04-27 18:04 52.10274 7.53372 1910 ft 156 kts 72°
2026-04-27 18:05 52.10588 7.54985 1718 ft 142 kts 71°
2026-04-27 18:05 52.10903 7.56433 1563 ft 133 kts 70°
2026-04-27 18:05 52.11211 7.57851 1327 ft 133 kts 70°
2026-04-27 18:05 52.11543 7.59293 1158 ft 138 kts 71°
2026-04-27 18:06 52.11842 7.60769 999 ft 137 kts 71°
2026-04-27 18:06 52.12150 7.62245 848 ft 138 kts 70°
2026-04-27 18:06 52.12456 7.63723 632 ft 140 kts 70°
2026-04-27 18:06 52.12783 7.65249 411 ft 143 kts 70°
2026-04-27 18:07 52.13096 7.66744 232 ft 139 kts 70°
2026-04-27 18:07 52.13397 7.68142 167 ft 114 kts 72°
2026-04-27 18:07 52.13576 7.69011 167 ft 43 kts 71°
2026-04-27 18:07 52.13675 7.69475 168 ft 41 kts 71°
2026-04-27 18:08 52.13750 7.69829 167 ft 25 kts 71°
2026-04-27 18:08 52.13735 7.70010 166 ft 16 kts 150°
2026-04-27 18:08 52.13639 7.70017 167 ft 14 kts 208°
2026-04-27 18:08 52.13585 7.69873 167 ft 17 kts 256°
2026-04-27 18:09 52.13542 7.69674 167 ft 20 kts 250°
2026-04-27 18:09 52.13496 7.69465 167 ft 19 kts 251°
2026-04-27 18:09 52.13454 7.69271 167 ft 17 kts 238°
2026-04-27 18:09 52.13351 7.69268 167 ft 16 kts 160°
2026-04-27 18:10 52.13256 7.69318 167 ft 11 kts 174°
2026-04-27 18:10 52.13204 7.69252 167 ft 9 kts 217°
2026-04-27 18:10 52.13156 7.69222 167 ft 5 kts 198°
2026-04-27 18:10 52.13139 7.69213 167 ft 1 kts 197°
2026-04-27 18:11 52.13136 7.69211 167 ft 0 kts 197°